Weather History for Crestview, FL

Change the Weather History Date:

Friday, December 6, 2013

  Actual Average Record
Temperature  
Mean Temperature 74 °F -  
Max Temperature 77 °F - - ()
Min Temperature 71 °F - - ()
Cooling Degree Days 9    
Growing Degree Days 24 (Base 50)    
Moisture  
Dew Point 71 °F    
Average Humidity 91    
Maximum Humidity 100    
Minimum Humidity 75    
Precipitation  
Precipitation 0.01 in - - ()
Sea Level Pressure  
Sea Level Pressure 30.07 in    
Wind  
Wind Speed 10 mph (South)    
Max Wind Speed 16 mph    
Max Gust Speed 22 mph    
Visibility 9 miles    
Events      
T = Trace of Precipitation, MM = Missing Value Source: NWS Daily Summary

Daily Weather History Graph

Daily Weather History Graph

Search for Another Location

Airport:

Trip Planner

Search our weather history database for the weather conditions in past years. The results will help you decide how hot, cold, wet, or windy it might be!

Date:

Astronomy

Dec. 06, 2013 Rise Set
Actual Time 6:29 AM CST 4:44 PM CST
Civil Twilight 6:03 AM CST 5:11 PM CST
Nautical Twilight 5:33 AM CST 5:40 PM CST
Astronomical Twilight 5:04 AM CST 6:10 PM CST
Moon 9:44 AM CST (12/6) 9:04 PM CST (12/6)
Length of Visible Light 11h 07m
Length of Day
10h 14m
Waxing Crescent, 19% of the Moon is Illuminated
Dec 6
Waxing Crescent
Dec 9
First Quarter
Dec 17
Full
Dec 25
Last Quarter
Jan 1
New

Hourly Weather History & Observations

Time (CST) Temp. Dew Point Humidity Pressure Visibility Wind Dir Wind Speed Gust Speed Precip Events Conditions
12:50 AM 71.6 °F 71.6 °F 100% 30.06 in 10.0 mi South 6.9 mph - N/A   Overcast
12:58 AM 71.4 °F 71.1 °F 99% 30.06 in 10.0 mi South 8.1 mph - N/A   Overcast
1:58 AM 71.1 °F 70.7 °F 99% 30.04 in 10.0 mi SSE 9.2 mph - N/A   Overcast
2:58 AM 71.2 °F 71.1 °F 99% 30.04 in 10.0 mi South 9.2 mph - N/A   Overcast
3:58 AM 71.6 °F 71.2 °F 99% 30.03 in 10.0 mi South 10.4 mph - N/A   Overcast
4:58 AM 72.3 °F 71.1 °F 96% 30.03 in 10.0 mi South 10.4 mph - N/A   Overcast
5:03 AM 71.6 °F 71.6 °F 100% 30.02 in 10.0 mi South 10.4 mph - N/A   Overcast
5:58 AM 72.5 °F 71.1 °F 95% 30.05 in 10.0 mi South 8.1 mph - N/A   Mostly Cloudy
6:58 AM 72.7 °F 71.2 °F 95% 30.06 in 10.0 mi South 8.1 mph - N/A   Overcast
6:59 AM 73.4 °F 71.6 °F 94% 30.06 in 10.0 mi South 8.1 mph - N/A   Overcast
7:14 AM 73.4 °F 71.6 °F 94% 30.06 in 10.0 mi South 10.4 mph - N/A   Overcast
7:15 AM 73.4 °F 71.6 °F 94% 30.06 in 10.0 mi South 10.4 mph - N/A   Overcast
7:35 AM 73.4 °F 71.6 °F 94% 30.07 in 10.0 mi South 9.2 mph - N/A   Overcast
7:37 AM 73.4 °F 71.6 °F 94% 30.06 in 10.0 mi South 9.2 mph - N/A   Overcast
7:47 AM 73.4 °F 71.6 °F 94% 30.07 in 10.0 mi South 10.4 mph - N/A   Mostly Cloudy
7:50 AM 73.4 °F 71.6 °F 94% 30.07 in 10.0 mi South 10.4 mph - N/A   Light Drizzle
7:52 AM 73.4 °F 71.6 °F 94% 30.07 in 10.0 mi South 10.4 mph - N/A   Overcast
7:58 AM 73.4 °F 70.9 °F 92% 30.08 in 10.0 mi South 13.8 mph 18.4 mph 0.00 in   Mostly Cloudy
8:45 AM 73.4 °F 69.8 °F 88% 30.09 in 9.0 mi South 12.7 mph - N/A   Light Drizzle
8:55 AM 73.0 °F 71.2 °F 94% 30.09 in 10.0 mi South 11.5 mph - 0.01 in   Mostly Cloudy
9:55 AM 74.3 °F 70.5 °F 88% 30.11 in 10.0 mi SSW 10.4 mph - N/A   Mostly Cloudy
10:55 AM 76.3 °F 69.4 °F 79% 30.09 in 10.0 mi South 16.1 mph 21.9 mph N/A   Mostly Cloudy
11:55 AM 76.3 °F 69.1 °F 78% 30.06 in 10.0 mi South 15.0 mph - N/A   Mostly Cloudy
12:55 PM 77.2 °F 68.7 °F 75% 30.06 in 10.0 mi SSW 15.0 mph - N/A   Mostly Cloudy
1:55 PM 76.5 °F 69.1 °F 78% 30.06 in 10.0 mi South 15.0 mph - N/A   Mostly Cloudy
2:55 PM 75.7 °F 69.1 °F 80% 30.05 in 10.0 mi South 12.7 mph - N/A   Mostly Cloudy
3:55 PM 74.5 °F 69.4 °F 84% 30.06 in 10.0 mi South 11.5 mph - N/A   Mostly Cloudy
4:55 PM 73.6 °F 70.0 °F 88% 30.06 in 10.0 mi South 12.7 mph - N/A   Overcast
5:17 PM 73.4 °F 69.8 °F 88% 30.07 in 7.0 mi South 11.5 mph - N/A   Overcast
5:55 PM 73.2 °F 70.5 °F 91% 30.08 in 5.0 mi South 10.4 mph - N/A   Overcast
6:38 PM 73.4 °F 71.6 °F 94% 30.07 in 5.0 mi South 10.4 mph - N/A   Overcast
6:57 PM 73.2 °F 70.9 °F 92% 30.08 in 5.0 mi South 8.1 mph - N/A   Overcast
7:55 PM 73.4 °F 70.9 °F 92% 30.09 in 5.0 mi South 9.2 mph - N/A   Overcast
8:55 PM 73.2 °F 71.2 °F 93% 30.10 in 6.0 mi SSW 10.4 mph - N/A   Overcast
9:55 PM 73.8 °F 70.7 °F 90% 30.12 in 6.0 mi SSW 8.1 mph - N/A   Overcast
10:43 PM 73.4 °F 69.8 °F 88% 30.11 in 6.0 mi SSW 9.2 mph - N/A   Mostly Cloudy
10:55 PM 73.4 °F 70.3 °F 90% 30.12 in 6.0 mi SSW 10.4 mph 18.4 mph N/A   Mostly Cloudy
11:55 PM 73.2 °F 70.5 °F 91% 30.11 in 6.0 mi SSW 6.9 mph - N/A   Mostly Cloudy
11:58 PM 73.4 °F 69.8 °F 88% 30.10 in 10.0 mi SSW 8.1 mph - N/A   Scattered Clouds